Muncie, IN

5:12 AM EDT on June 27, 2017 (GMT -0400)
Delaware County-Johnson

Weather History for KMIE - September, 2013

Change the Weather History Date:

Sunday, September 1, 2013

  Actual Average Record
Temperature  
Mean Temperature 75 °F 71 °F  
Max Temperature 83 °F 82 °F 94 °F (2011)
Min Temperature 66 °F 60 °F 44 °F (1967)
Degree Days  
Heating Degree Days 0 1  
Month to date heating degree days 0 1  
Since 1 July heating degree days 26 11  
Cooling Degree Days 10 6  
Month to date cooling degree days 10 6  
Year to date cooling degree days 825 840  
Growing Degree Days 24 (Base 50)    
Moisture  
Dew Point 68 °F    
Average Humidity 81    
Maximum Humidity 97    
Minimum Humidity 65    
Precipitation  
Precipitation 0.00 in 0.11 in 4.21 in (2003)
Month to date precipitation 0.00 0.11  
Year to date precipitation 24.88 28.02  
Sea Level Pressure  
Sea Level Pressure 29.79 in    
Wind  
Wind Speed 5 mph (WSW)    
Max Wind Speed 13 mph    
Max Gust Speed 16 mph    
Visibility 10 miles    
Events      
T = Trace of Precipitation, MM = Missing Value Source: NWS Daily Summary

Daily Weather History Graph

Daily Weather History Graph

Search for Another Location

Airport or City:

Trip Planner

Search our weather history database for the weather conditions in past years. The results will help you decide how hot, cold, wet, or windy it might be!

Date:

Astronomy

Sep. 01, 2013 Rise Set
Actual Time 7:09 AM EDT 8:12 PM EDT
Civil Twilight 6:41 AM EDT 8:40 PM EDT
Nautical Twilight 6:08 AM EDT 9:13 PM EDT
Astronomical Twilight 5:33 AM EDT 9:48 PM EDT
Moon 3:30 AM EDT (9/1) 5:50 PM EDT (9/1)
Length of Visible Light 13h 59m
Length of Day
13h 03m
Waning Crescent, 14% of the Moon is Illuminated
Sep 1
Waning Crescent
Sep 5
New
Sep 12
First Quarter
Sep 19
Full
Sep 26
Last Quarter

Hourly Weather History & Observations

Time (EDT) Temp. Heat Index Dew Point Humidity Pressure Visibility Wind Dir Wind Speed Gust Speed Precip Events Conditions
12:53 AM 70.0 °F - 66.9 °F 90% 29.78 in 10.0 mi Calm Calm - N/A   Scattered Clouds
1:53 AM 70.0 °F - 66.9 °F 90% 29.80 in 10.0 mi WSW 4.6 mph - N/A   Scattered Clouds
2:53 AM 69.1 °F - 66.0 °F 90% 29.79 in 10.0 mi SSE 3.5 mph - N/A   Mostly Cloudy
3:53 AM 69.1 °F - 66.0 °F 90% 29.78 in 10.0 mi South 4.6 mph - N/A   Partly Cloudy
4:53 AM 68.0 °F - 66.0 °F 93% 29.78 in 10.0 mi Calm Calm - N/A   Clear
5:53 AM 66.0 °F - 64.9 °F 96% 29.79 in 8.0 mi Calm Calm - N/A   Clear
6:53 AM 68.0 °F - 66.0 °F 93% 29.78 in 9.0 mi Calm Calm - N/A   Overcast
7:53 AM 69.1 °F - 66.0 °F 90% 29.81 in 10.0 mi South 3.5 mph - N/A   Overcast
8:53 AM 69.1 °F - 66.0 °F 90% 29.81 in 10.0 mi South 5.8 mph - N/A   Overcast
9:46 AM 71.6 °F - 66.2 °F 83% 29.82 in 10.0 mi SSW 6.9 mph - N/A   Overcast
9:53 AM 71.1 °F - 66.9 °F 87% 29.79 in 10.0 mi SSW 5.8 mph - N/A   Overcast
10:04 AM 71.6 °F - 66.2 °F 83% 29.82 in 10.0 mi SSW 6.9 mph - N/A   Overcast
10:11 AM 73.4 °F - 68.0 °F 83% 29.82 in 10.0 mi SSW 4.6 mph - N/A   Overcast
10:53 AM 75.0 °F - 68.0 °F 79% 29.79 in 10.0 mi SSW 6.9 mph - N/A   Partly Cloudy
11:34 AM 73.4 °F - 66.2 °F 78% 29.83 in 10.0 mi WSW 6.9 mph - N/A   Overcast
11:53 AM 73.9 °F - 66.9 °F 79% 29.80 in 10.0 mi SW 6.9 mph - N/A   Overcast
12:53 PM 75.9 °F - 66.9 °F 74% 29.80 in 10.0 mi SW 5.8 mph - N/A   Overcast
1:53 PM 79.0 °F - 69.1 °F 72% 29.79 in 10.0 mi West 6.9 mph - N/A   Mostly Cloudy
2:53 PM 79.0 °F - 68.0 °F 69% 29.79 in 10.0 mi WSW 8.1 mph - N/A   Overcast
3:26 PM 80.6 °F 83.9 °F 69.8 °F 70% 29.80 in 10.0 mi WSW 6.9 mph - N/A   Mostly Cloudy
3:53 PM 82.9 °F 86.5 °F 69.1 °F 63% 29.76 in 10.0 mi West 10.4 mph - N/A   Clear
4:53 PM 82.9 °F 86.5 °F 69.1 °F 63% 29.75 in 10.0 mi West 8.1 mph - N/A   Partly Cloudy
5:53 PM 82.0 °F 85.5 °F 69.1 °F 65% 29.75 in 10.0 mi Variable 4.6 mph - N/A   Partly Cloudy
6:53 PM 80.1 °F 83.6 °F 71.1 °F 74% 29.75 in 10.0 mi NNW 8.1 mph - N/A   Partly Cloudy
7:10 PM 78.8 °F - 71.6 °F 78% 29.78 in 10.0 mi NNW 8.1 mph - N/A   Mostly Cloudy
7:20 PM 77.0 °F - 71.6 °F 83% 29.78 in 10.0 mi NNW 6.9 mph - N/A   Scattered Clouds
7:53 PM 75.9 °F - 70.0 °F 82% 29.76 in 10.0 mi NW 8.1 mph - N/A   Clear
8:53 PM 73.0 °F - 69.1 °F 87% 29.78 in 10.0 mi NW 4.6 mph - N/A   Mostly Cloudy
9:04 PM 73.4 °F - 69.8 °F 88% 29.81 in 10.0 mi NW 4.6 mph - N/A   Mostly Cloudy
9:45 PM 71.6 °F - 69.8 °F 94% 29.82 in 10.0 mi Calm Calm - N/A   Mostly Cloudy
9:53 PM 73.0 °F - 69.1 °F 87% 29.80 in 10.0 mi Calm Calm - N/A   Scattered Clouds
10:53 PM 70.0 °F - 68.0 °F 93% 29.79 in 9.0 mi WNW 3.5 mph - N/A   Partly Cloudy
11:53 PM 70.0 °F - 68.0 °F 93% 29.80 in 6.0 mi West 3.5 mph - N/A   Clear